COSMOS 1275 DEB, 14556

Orbit data source: Space-Track

COSMOS 1275 DEB, 14556 is space debris in LEO originally from a launch on Thu, 04 Jun 1981 UTC launched from the Plesetsk Missile And Space Complex (PKMTR). Debris objects in space refer to the collection of defunct objects orbiting the Earth. Examples of debris include non-operational satellites, rocket bodies, and fragments generated from explosions, collisions, or faulty payload assembly.

Loading next visibility...
Identifier
14556, 1981-053JL
Orbit
LEO
Country
Flag of CISCIS
Related business
Manufacturer
Unknown
Mission
Spacecraft
Bus & Motor
Unknown
Mass
Unknown
Launch date (UTC)
1981-06-04 (45 years ago)
Launch vehicle
Unknown
Launch site
Plesetsk Missile And Space Complex (PKMTR)
Object type
Payload
Rocket body
Debris
Shape & HBR
Unknown shape, 0.1 m
Radar Cross Section
Small (<0.1 m²)

Expand to show TLE details & history
Last TLE update: 11 hours ago

TLE from 11 hours ago
0 COSMOS 1275 DEB
1 14556U 81053JL  26104.24464137  .00001080  00000-0  11302-2 0  9990
2 14556  83.0166  24.2801 0125456 130.4560  21.7297 13.70875893103346
Epoch: 2026-04-14T05:52Z
TLE epoch observation values (Epoch: 2026-04-14T05:52:17.014Z)
Latitude
27.09362°
Longitude
-89.78832°
Altitude
913.93 km
Speed
7.44 km/s
True Right ascension
13h 22m 49s
True Declination
26° 57' 27"
Sunlit
Object was in full shadow at epoch
Visualization orbit readout
Latitude
Unknown
Longitude
Unknown
Altitude
Unknown
Speed
Unknown
Apparent Right ascension
Unknown
Apparent Declination
Unknown
Sunlit
N/A
Visualization observer readout
Local Sidereal Time
23:25:01
Azimuth
Unknown
Elevation
Unknown
Doppler factor
Unknown
Orbital elements
Apogee altitude
1,086.062 km
Perigee altitude
901.097 km
Semi-major axis
7,371.716 km
Eccentricity
0.01255
Inclination
83.0166°
RAAN
24.2801°
Arg. of periapsis
130.456°
True anomaly
22.2698°
Mean anomaly
21.7297°
Eccentric anomaly
21.99896°
Mean motion
3.42918 °/min
Orbital period
104.98 mins
BSTAR
0.0011302
Loading maneuver chart data...
Computing Atmospheric mass density...
Loading historical data...
Loading historical data...
Loading historical data...
Loading historical data...
Loading historical data...
Loading historical data...
Loading historical data...

Documentation

Showing up to 5 results
|